DW5247 Lemo FI current weather conditions

sailwx.info

Wind from 158

Air temperature 2.2° C
Dewpoint 1.5° C

Last reported at 2014-Sep-23 23:47 UTC.
Time now 2014-Sep-24 00:27 UTC

Location: N 62°41' E 029°49'.
View on Google Maps.

See reports from other nearby stations

  
Tides and Currents Weather Stations Pressure Air Temp Water Temp Dewpoint Dewpoint Depression Visibility Wind Speed Wind Dir Waves Ship Positions
date/time (UTC)wind fromknots sea level pressurealtimeterstation pressurevisibilityair tempwater tempwave heightnotes
2014-Sep-23 23:47 158 2.2
2014-Sep-23 23:42 248 1.7
2014-Sep-23 23:37 203 1.7
2014-Sep-23 23:32 158 1.7
2014-Sep-23 23:27 158 1.7
2014-Sep-23 23:22 158 0 gusting 1 1.7
2014-Sep-23 23:17 203 0 gusting 1 1.7
2014-Sep-23 23:12 180 1.7
2014-Sep-23 23:07 180 1.7
2014-Sep-23 23:02 203 1.7
2014-Sep-23 22:57 248 1.7
2014-Sep-23 22:52 180 1.7
2014-Sep-23 22:47 135 1.7
2014-Sep-23 22:42 225 1.7
2014-Sep-23 22:37 248 0 gusting 2 1.7
2014-Sep-23 22:32 248 0 gusting 2 2.2
2014-Sep-23 22:27 203 2.2
2014-Sep-23 22:22 203 2.2
2014-Sep-23 22:17 180 2.2
2014-Sep-23 22:12 270 0 gusting 2 2.2
2014-Sep-23 22:07 180 1 gusting 2 2.2
2014-Sep-23 22:02 113 1 gusting 5 2.2
2014-Sep-23 21:57 248 0 gusting 5 2.2
2014-Sep-23 21:52 293 1 gusting 5 2.2
2014-Sep-23 21:47 203 1 gusting 3 2.2
2014-Sep-23 21:42 225 0 gusting 1 2.2
2014-Sep-23 21:37 248 0 gusting 2 2.2
2014-Sep-23 21:32 248 1 gusting 5 2.2
2014-Sep-23 21:27 180 1 gusting 5 2.2
2014-Sep-23 21:22 203 1 gusting 5 2.2
2014-Sep-23 21:17 203 2 gusting 3 2.2
2014-Sep-23 21:12 225 2 gusting 5 1.7
2014-Sep-23 21:07 225 2 gusting 5 1.7
2014-Sep-23 20:57 248 2 gusting 6 1.7
2014-Sep-23 20:52 180 2 gusting 6 1.7
2014-Sep-23 20:47 225 2 gusting 4 1.7
2014-Sep-23 20:42 225 1 gusting 5 1.7
2014-Sep-23 20:37 225 2 gusting 5 1.7
2014-Sep-23 20:32 248 2 gusting 5 1.7
2014-Sep-23 20:02 248 3 gusting 5 1.7
2014-Sep-23 19:57 315 2 gusting 7 1.7
2014-Sep-23 19:52 248 3 gusting 7 1.7
2014-Sep-23 19:47 248 3 gusting 4 1.7
2014-Sep-23 19:42 338 2 gusting 4 1.7
2014-Sep-23 19:37 315 2 gusting 4 1.7
2014-Sep-23 19:32 180 3 gusting 4 1.7
2014-Sep-23 19:27 203 2 gusting 5 1.7
2014-Sep-23 19:22 315 2 gusting 5 1.7
2014-Sep-23 19:17 158 2 gusting 4 1.7
2014-Sep-23 19:12 270 2 gusting 4 1.7
2014-Sep-23 19:07 248 2 gusting 4 1.7
2014-Sep-23 19:02 203 2 gusting 4 1.7
2014-Sep-23 18:57 293 2 gusting 3 1.7
2014-Sep-23 18:52 248 2 gusting 4 1.7
2014-Sep-23 18:47 248 2 gusting 6 1.7
2014-Sep-23 18:42 248 2 gusting 9 1.7
2014-Sep-23 18:37 225 3 gusting 9 1.7
2014-Sep-23 18:32 248 4 gusting 9 1.7
2014-Sep-23 18:27 248 3 gusting 8 1.7
2014-Sep-23 18:22 180 3 gusting 8 1.7
2014-Sep-23 18:17 248 3 gusting 8 1.7
2014-Sep-23 18:12 270 3 gusting 7 1.7
2014-Sep-23 18:07 158 3 gusting 7 1.7
2014-Sep-23 18:02 248 3 gusting 5 1.7
2014-Sep-23 17:57 315 2 gusting 3 1.7
2014-Sep-23 17:52 293 2 gusting 5 1.7
2014-Sep-23 17:47 225 3 gusting 6 1.7
2014-Sep-23 17:42 270 3 gusting 8 1.7
2014-Sep-23 17:37 248 4 gusting 8 1.7
2014-Sep-23 17:32 293 3 gusting 6 1.7
2014-Sep-23 17:27 225 3 gusting 6 1.7
2014-Sep-23 17:22 225 3 gusting 6 1.7
2014-Sep-23 17:17 248 3 gusting 7 1.7
2014-Sep-23 17:12 113 3 gusting 7 1.7
2014-Sep-23 17:07 180 3 gusting 6 1.7
2014-Sep-23 17:02 315 3 gusting 6 1.7
2014-Sep-23 16:57 270 3 gusting 7 1.7
2014-Sep-23 16:52 225 3 gusting 7 1.7
2014-Sep-23 16:47 248 3 gusting 6 1.7
2014-Sep-23 16:42 248 3 gusting 6 1.7
2014-Sep-23 16:37 248 3 gusting 6 1.1
2014-Sep-23 16:32 248 3 gusting 6 1.1
2014-Sep-23 16:27 225 3 gusting 4 1.1
2014-Sep-23 16:22 270 2 gusting 6 1.1
2014-Sep-23 16:17 270 3 gusting 6 1.1
2014-Sep-23 16:12 270 3 gusting 6 1.1
2014-Sep-23 16:07 270 2 gusting 5 1.1
2014-Sep-23 16:02 248 2 gusting 8 1.1
2014-Sep-23 15:57 180 3 gusting 8 1.1
2014-Sep-23 15:52 225 3 gusting 6 1.1
2014-Sep-23 15:47 293 3 gusting 6 1.1
2014-Sep-23 15:42 248 3 gusting 6 1.1
2014-Sep-23 15:37 248 3 gusting 6 1.1
2014-Sep-23 15:32 248 2 gusting 5 1.1
2014-Sep-23 15:27 225 2 gusting 5 1.1
2014-Sep-23 15:22 248 2 gusting 6 1.1
2014-Sep-23 15:17 248 2 gusting 6 1.1
2014-Sep-23 15:12 293 2 gusting 6 1.1
2014-Sep-23 15:07 248 2 gusting 9 1.1
2014-Sep-23 15:02 270 3 gusting 9 1.1
2014-Sep-23 14:57 225 2 gusting 9 1.1
2014-Sep-23 14:52 248 2 gusting 5 1.1
2014-Sep-23 14:47 248 2 gusting 6 1.1
2014-Sep-23 14:42 045 3 gusting 6 1.1
2014-Sep-23 14:37 225 3 gusting 6 1.1
2014-Sep-23 14:32 338 3 gusting 8 1.1
2014-Sep-23 14:27 248 3 gusting 8 1.1
2014-Sep-23 14:22 315 2 gusting 6 1.1
2014-Sep-23 14:17 315 2 gusting 6 1.1
2014-Sep-23 14:12 248 2 gusting 6 1.1
2014-Sep-23 14:07 293 2 gusting 6 1.1
2014-Sep-23 14:02 248 2 gusting 6 1.1
2014-Sep-23 13:57 225 2 gusting 5 1.1
2014-Sep-23 13:52 270 2 gusting 5 1.1
2014-Sep-23 13:47 270 1 gusting 5 1.1
2014-Sep-23 13:42 248 2 gusting 5 1.1
2014-Sep-23 13:37 248 2 gusting 5 1.1
2014-Sep-23 13:32 248 1 gusting 5 1.1
2014-Sep-23 13:27 248 1 gusting 6 1.1
2014-Sep-23 13:22 270 1 gusting 6 1.1
2014-Sep-23 13:17 248 3 gusting 6 1.1
2014-Sep-23 13:12 248 3 gusting 4 1.1
2014-Sep-23 13:07 315 3 gusting 3 1.1
2014-Sep-23 13:02 248 2 gusting 6 1.1
2014-Sep-23 12:57 270 2 gusting 8 1.1
2014-Sep-23 12:52 248 3 gusting 8 1.1
2014-Sep-23 12:47 1.1
2014-Sep-23 12:42 225 3 gusting 6 1.1
2014-Sep-23 12:37 248 2 gusting 5 1.1
2014-Sep-23 12:32 270 1 gusting 1 1.1
2014-Sep-23 12:27 248 1.1
2014-Sep-23 12:22 203 0 gusting 4 1.1
2014-Sep-23 12:17 293 2 gusting 5 1.1
2014-Sep-23 12:12 270 2 gusting 8 1.1
2014-Sep-23 12:07 270 2 gusting 8 1.1
2014-Sep-23 12:02 248 3 gusting 8 1.1
2014-Sep-23 11:57 270 3 gusting 8 1.1
2014-Sep-23 11:52 225 2 gusting 5 1.1
2014-Sep-23 11:47 180 1 gusting 5 1.1
2014-Sep-23 11:42 293 2 gusting 5 1.1
2014-Sep-23 11:37 270 2 gusting 4 1.1
2014-Sep-23 11:32 248 2 gusting 3 1.1
2014-Sep-23 11:27 293 2 gusting 6 1.1
2014-Sep-23 11:22 248 2 gusting 6 1.1
2014-Sep-23 11:17 293 2 gusting 6 1.1
2014-Sep-23 11:12 248 2 gusting 5 1.1
2014-Sep-23 11:07 315 2 gusting 5 1.1
2014-Sep-23 11:02 225 2 gusting 6 1.1
2014-Sep-23 10:57 225 2 gusting 6 1.1
2014-Sep-23 10:52 293 3 gusting 6 1.1
2014-Sep-23 10:47 270 3 gusting 5 1.1
2014-Sep-23 10:42 293 2 gusting 4 1.1
2014-Sep-23 10:37 293 1 gusting 4 1.1
2014-Sep-23 10:32 225 1 gusting 4 1.1
2014-Sep-23 10:27 315 2 gusting 4 1.1
2014-Sep-23 10:22 248 2 gusting 4 1.1
2014-Sep-23 10:17 293 3 gusting 5 1.1
2014-Sep-23 10:12 1.1
2014-Sep-23 10:07 248 2 gusting 6 1.1
2014-Sep-23 10:02 225 3 gusting 7 1.1
2014-Sep-23 09:57 293 3 gusting 10 1.1
2014-Sep-23 09:52 270 3 gusting 10 1.1
2014-Sep-23 09:47 248 3 gusting 10 1.1
2014-Sep-23 09:42 248 3 gusting 7 1.1
2014-Sep-23 09:37 270 3 gusting 7 1.1
2014-Sep-23 09:32 293 3 gusting 6 1.1
2014-Sep-23 09:27 225 3 gusting 5 1.1
2014-Sep-23 09:22 293 3 gusting 5 1.1
2014-Sep-23 09:17 270 3 gusting 5 1.1
2014-Sep-23 09:12 270 2 gusting 5 1.1
2014-Sep-23 09:07 270 2 gusting 6 1.1
2014-Sep-23 09:02 270 2 gusting 6 1.1
2014-Sep-23 08:57 293 3 gusting 7 1.1
2014-Sep-23 08:52 315 3 gusting 8 1.1
2014-Sep-23 08:47 270 3 gusting 8 1.1
2014-Sep-23 08:42 270 2 gusting 11 1.1
2014-Sep-23 08:37 270 2 gusting 11 1.1
2014-Sep-23 08:32 293 2 gusting 6 1.1
2014-Sep-23 08:27 270 3 gusting 6 1.1
2014-Sep-23 08:22 293 3 gusting 6 1.1
2014-Sep-23 08:17 270 2 gusting 10 1.1
2014-Sep-23 08:12 225 3 gusting 10 1.1
2014-Sep-23 08:07 315 3 gusting 10 1.1
2014-Sep-23 08:02 293 3 gusting 7 1.1
2014-Sep-23 07:57 293 3 gusting 7 1.1
2014-Sep-23 07:52 315 3 gusting 7 1.1
2014-Sep-23 07:47 270 3 gusting 6 1.1
2014-Sep-23 07:42 293 2 gusting 5 1.1
2014-Sep-23 07:32 315 3 gusting 5 1.1
2014-Sep-23 07:27 248 3 gusting 3 1.1
2014-Sep-23 07:22 113 2 gusting 5 1.1
2014-Sep-23 07:17 248 1 gusting 5 1.1
2014-Sep-23 07:12 248 1 gusting 5 1.1
2014-Sep-23 07:07 270 3 gusting 5 1.1
2014-Sep-23 07:02 225 3 gusting 6 1.1
2014-Sep-23 06:57 270 3 gusting 6 1.1
2014-Sep-23 06:52 270 3 gusting 8 1.1
2014-Sep-23 06:47 315 3 gusting 8 1.1
2014-Sep-23 06:42 248 3 gusting 11 1.1
2014-Sep-23 06:37 270 3 gusting 11 1.1
2014-Sep-23 06:32 270 2 gusting 11 1.1
2014-Sep-23 06:27 248 1 gusting 5 1.1
2014-Sep-23 06:22 270 2 gusting 5 1.1
2014-Sep-23 06:17 315 1 gusting 4 1.1
2014-Sep-23 06:12 248 1 gusting 4 1.1
2014-Sep-23 06:07 270 3 gusting 4 1.1
2014-Sep-23 06:02 270 2 gusting 7 1.1
2014-Sep-23 05:57 315 1 gusting 7 1.1
2014-Sep-23 05:52 315 2 gusting 7 1.1
2014-Sep-23 05:47 270 2 gusting 5 1.1
2014-Sep-23 05:42 270 2 gusting 5 1.1
2014-Sep-23 05:37 270 2 gusting 6 1.1
2014-Sep-23 05:32 293 3 gusting 6 1.1
2014-Sep-23 05:27 225 1 gusting 4 1.1
2014-Sep-23 05:22 315 1 gusting 4 1.1
2014-Sep-23 05:17 248 1 gusting 4 1.1
2014-Sep-23 05:12 248 0 gusting 3 1.1
2014-Sep-23 05:07 248 0 gusting 6 1.1
2014-Sep-23 05:02 270 0 gusting 6 1.1
2014-Sep-23 04:57 270 1 gusting 7 1.1
2014-Sep-23 04:52 270 2 gusting 7 1.1
2014-Sep-23 04:47 293 2 gusting 7 1.1
2014-Sep-23 04:42 270 2 gusting 6 1.1
2014-Sep-23 04:37 248 3 gusting 6 1.1
2014-Sep-23 04:32 248 3 gusting 6 1.1
2014-Sep-23 04:27 248 3 gusting 6 1.1
2014-Sep-23 04:22 158 3 gusting 6 1.1
2014-Sep-23 04:17 315 3 gusting 6 1.1
2014-Sep-23 04:12 293 3 gusting 6 1.1
2014-Sep-23 04:07 180 3 gusting 6 1.1
2014-Sep-23 04:02 293 2 gusting 6 1.1
2014-Sep-23 03:57 293 3 gusting 5 1.1
2014-Sep-23 03:52 293 2 gusting 5 1.1
2014-Sep-23 03:47 293 1 gusting 5 1.1
2014-Sep-23 03:42 270 1 gusting 5 1.1
2014-Sep-23 03:37 270 2 gusting 5 1.1
2014-Sep-23 03:32 293 3 gusting 5 1.1
2014-Sep-23 03:27 293 3 gusting 4 1.1
2014-Sep-23 03:22 315 3 gusting 4 1.1
2014-Sep-23 03:17 315 3 gusting 2 1.1
2014-Sep-23 03:12 338 3 gusting 5 1.1
2014-Sep-23 03:07 338 3 gusting 5 1.1
2014-Sep-23 03:02 338 3 gusting 6 1.1
2014-Sep-23 02:57 315 2 gusting 6 1.1
2014-Sep-23 02:52 338 1 gusting 6 1.1
2014-Sep-23 02:47 270 2 gusting 7 1.1
2014-Sep-23 02:42 270 2 gusting 7 1.1
2014-Sep-23 02:37 248 3 gusting 7 1.1
2014-Sep-23 02:32 270 3 gusting 6 1.1
2014-Sep-23 02:27 315 3 gusting 6 1.1
2014-Sep-23 02:22 270 2 gusting 6 1.1
2014-Sep-23 02:17 338 3 gusting 6 1.1
2014-Sep-23 02:12 315 2 gusting 6 1.1
2014-Sep-23 02:07 248 1 gusting 6 1.1
2014-Sep-23 02:02 023 2 gusting 5 1.1
2014-Sep-23 01:57 315 1 gusting 5 1.1
2014-Sep-23 01:52 270 1 gusting 5 1.1
2014-Sep-23 01:47 270 2 gusting 4 1.1
2014-Sep-23 01:42 270 2 gusting 4 1.1
2014-Sep-23 01:37 203 1 gusting 2 1.1
2014-Sep-23 01:32 270 1.1
2014-Sep-23 01:27 315 1.1
2014-Sep-23 01:22 270 0 gusting 6 1.1
2014-Sep-23 01:17 270 1 gusting 6 1.1
2014-Sep-23 01:12 293 0 gusting 3 1.1
2014-Sep-23 01:07 293 1.1
2014-Sep-23 01:02 293 1.1
2014-Sep-23 00:57 270 1.1
2014-Sep-23 00:52 270 1 gusting 6 1.1
2014-Sep-23 00:47 270 1 gusting 3 1.1
2014-Sep-23 00:42 293 1 gusting 3 1.1
2014-Sep-23 00:37 315 1 gusting 3 1.1
2014-Sep-23 00:32 315 1 gusting 3 1.1
2014-Sep-23 00:27 270 1 gusting 3 1.1
2014-Sep-23 00:22 270 1 gusting 3 1.1
2014-Sep-23 00:17 293 0 gusting 3 1.1
2014-Sep-23 00:12 315 2 gusting 3 1.1
2014-Sep-23 00:07 315 2 gusting 3 1.1
2014-Sep-23 00:02 158 2 gusting 3 1.1
2014-Sep-22 23:57 293 1 gusting 3 1.1
2014-Sep-22 23:52 315 1.1
2014-Sep-22 23:47 270 1.1
2014-Sep-22 23:42 315 1.1
2014-Sep-22 23:37 315 1.1
2014-Sep-22 23:32 248 0.6
2014-Sep-22 23:27 315 1.1
2014-Sep-22 23:22 293 0 gusting 6 0.6
2014-Sep-22 23:17 315 1 gusting 6 0.6
2014-Sep-22 23:12 248 1 gusting 2 0.6
2014-Sep-22 23:07 248 0 gusting 2 0.6
2014-Sep-22 23:02 293 0 gusting 6 1.1
2014-Sep-22 22:57 315 1 gusting 6 0.6
2014-Sep-22 22:52 315 1 gusting 6 0.6
2014-Sep-22 22:47 315 1 gusting 3 0.6
2014-Sep-22 22:42 248 1 gusting 3 0.6
2014-Sep-22 22:37 315 0 gusting 0 0.6
2014-Sep-22 22:32 315 1.1
2014-Sep-22 22:27 315 0 gusting 6 1.1
2014-Sep-22 22:22 293 1 gusting 6 1.1
2014-Sep-22 22:17 293 1 gusting 3 1.1
2014-Sep-22 22:12 068 0 gusting 1 1.1
2014-Sep-22 22:07 315 1.1
2014-Sep-22 22:02 338 1.1
2014-Sep-22 21:57 293 1.1
2014-Sep-22 21:52 315 1.1
2014-Sep-22 21:47 293 1.1
2014-Sep-22 21:42 315 1.1
2014-Sep-22 21:37 315 1.1
2014-Sep-22 21:32 293 1.1
2014-Sep-22 21:27 293 1.1
2014-Sep-22 21:22 225 1.1
2014-Sep-22 21:17 315 1 1.1
2014-Sep-22 21:12 293 1.1
2014-Sep-22 21:07 293 1.1
2014-Sep-22 20:57 225 1.1
2014-Sep-22 20:52 338 1 gusting 5 1.1
2014-Sep-22 20:47 248 2 gusting 5 1.1
2014-Sep-22 20:42 293 2 gusting 6 1.1
2014-Sep-22 20:37 270 3 gusting 6 1.1
2014-Sep-22 20:32 315 3 gusting 6 1.1
2014-Sep-22 20:27 315 2 gusting 6 1.1
2014-Sep-22 20:22 090 2 gusting 6 1.1
2014-Sep-22 20:17 203 3 gusting 6 1.1
2014-Sep-22 20:12 315 2 gusting 6 1.1
2014-Sep-22 20:07 270 2 gusting 4 1.1
2014-Sep-22 20:02 315 2 gusting 4 1.1
2014-Sep-22 19:57 315 1 gusting 7 1.1
2014-Sep-22 19:52 293 2 gusting 7 1.1
2014-Sep-22 19:47 270 2 gusting 7 1.1
2014-Sep-22 19:42 225 2 gusting 3 1.1
2014-Sep-22 19:37 315 2 gusting 3 1.1
2014-Sep-22 19:32 315 0 gusting 2 1.1
2014-Sep-22 19:27 315 1.1
2014-Sep-22 19:22 338 1.1
2014-Sep-22 19:17 293 1.1
2014-Sep-22 19:12 315 1.1
2014-Sep-22 19:07 293 1.1
2014-Sep-22 19:02 248 0 gusting 6 1.1
2014-Sep-22 18:57 315 2 gusting 6 1.1
2014-Sep-22 18:52 248 2 gusting 6 1.1
2014-Sep-22 18:47 293 2 gusting 3 1.1
2014-Sep-22 18:42 315 2 gusting 5 1.1
2014-Sep-22 18:37 270 2 gusting 5 1.1
2014-Sep-22 18:32 293 2 gusting 5 1.1
2014-Sep-22 18:27 248 2 gusting 7 1.1
2014-Sep-22 18:22 225 2 gusting 7 1.1
2014-Sep-22 18:17 315 2 gusting 7 1.1
2014-Sep-22 18:12 315 3 gusting 6 1.1
2014-Sep-22 18:07 293 1 gusting 12 1.1
2014-Sep-22 18:02 270 2 gusting 12 1.1
2014-Sep-22 17:57 270 3 gusting 9 1.1
2014-Sep-22 17:52 315 3 gusting 9 1.1
2014-Sep-22 17:47 293 3 gusting 4 1.1
2014-Sep-22 17:42 315 2 gusting 7 1.1
2014-Sep-22 17:37 293 2 gusting 7 1.1
2014-Sep-22 17:32 293 2 gusting 7 1.1
2014-Sep-22 17:27 225 2 gusting 4 1.1
2014-Sep-22 17:22 293 2 gusting 4 1.1
2014-Sep-22 17:17 180 2 gusting 5 1.7
2014-Sep-22 17:12 248 2 gusting 6 1.7
2014-Sep-22 17:07 248 2 gusting 6 1.7
2014-Sep-22 17:02 270 2 gusting 6 1.7
2014-Sep-22 16:57 315 2 gusting 6 1.7
2014-Sep-22 16:52 293 2 gusting 6 1.7
2014-Sep-22 16:47 248 2 gusting 6 1.7
2014-Sep-22 16:42 045 2 gusting 7 1.7
2014-Sep-22 16:37 180 3 gusting 7 1.7
2014-Sep-22 16:32 315 3 gusting 10 1.7
2014-Sep-22 16:27 248 2 gusting 10 1.7
2014-Sep-22 16:22 293 3 gusting 10 2.2
2014-Sep-22 16:17 315 3 gusting 6 2.2
2014-Sep-22 16:12 270 3 gusting 6 2.2
2014-Sep-22 16:07 338 3 gusting 6 2.2
2014-Sep-22 16:02 270 3 gusting 11 2.2
2014-Sep-22 15:57 293 4 gusting 11 2.2
2014-Sep-22 15:52 180 4 gusting 10 2.2
2014-Sep-22 15:47 225 3 gusting 6 2.8
2014-Sep-22 15:42 270 3 gusting 6 2.8
2014-Sep-22 15:37 068 3 gusting 5 2.8
2014-Sep-22 15:32 338 3 gusting 8 2.8
2014-Sep-22 15:27 293 3 gusting 8 2.8
2014-Sep-22 15:22 315 4 gusting 8 2.8
2014-Sep-22 15:17 270 4 gusting 7 2.8
2014-Sep-22 15:12 293 5 gusting 7 2.8
2014-Sep-22 15:07 270 4 gusting 7 2.8
2014-Sep-22 15:02 248 4 gusting 6 2.8
2014-Sep-22 14:57 315 4 gusting 6 2.8
2014-Sep-22 14:52 315 4 gusting 6 3.3
2014-Sep-22 14:47 315 4 gusting 6 3.3
2014-Sep-22 14:42 248 4 gusting 7 2.8
2014-Sep-22 14:37 315 3 gusting 7 3.3
2014-Sep-22 14:32 315 4 gusting 7 3.3
2014-Sep-22 14:27 315 4 gusting 7 3.3
2014-Sep-22 14:22 270 3 gusting 9 3.3
2014-Sep-22 14:17 225 4 gusting 9 3.3
2014-Sep-22 14:12 293 4 gusting 6 3.3
2014-Sep-22 14:07 315 4 gusting 10 3.3
2014-Sep-22 14:02 270 5 gusting 10 3.3
2014-Sep-22 13:57 315 5 gusting 10 3.3
2014-Sep-22 13:52 315 5 gusting 9 3.3
2014-Sep-22 13:47 248 5 gusting 10 3.3
2014-Sep-22 13:42 270 5 gusting 10 3.3
2014-Sep-22 13:37 315 5 gusting 10 3.3
2014-Sep-22 13:32 293 5 gusting 10 3.3
2014-Sep-22 13:27 293 5 gusting 12 3.3
2014-Sep-22 13:22 270 5 gusting 12 3.3
2014-Sep-22 13:17 315 6 gusting 12 3.3
2014-Sep-22 13:12 315 5 gusting 11 3.3
2014-Sep-22 13:07 293 5 gusting 7 3.3
2014-Sep-22 13:02 293 4 gusting 7 3.3
2014-Sep-22 12:57 270 4 gusting 12 3.3
2014-Sep-22 12:52 338 5 gusting 12 3.3
2014-Sep-22 12:47 248 4 gusting 7 3.3
2014-Sep-22 12:42 338 4 gusting 7 3.3
2014-Sep-22 12:37 315 3 gusting 7 3.3
2014-Sep-22 12:32 315 3 gusting 7 3.3
2014-Sep-22 12:27 225 3 gusting 7 3.9
2014-Sep-22 12:22 293 3 gusting 6 3.9
2014-Sep-22 12:17 180 3 gusting 6 3.9
2014-Sep-22 12:12 270 4 gusting 7 3.9
2014-Sep-22 12:07 270 4 gusting 8 3.9
2014-Sep-22 12:02 315 5 gusting 8 3.9
2014-Sep-22 11:57 270 5 gusting 7 3.9
2014-Sep-22 11:52 315 4 gusting 7 3.9
2014-Sep-22 11:47 338 4 gusting 7 3.9
2014-Sep-22 11:42 338 4 gusting 7 3.9
2014-Sep-22 11:37 315 4 gusting 6 4.4
2014-Sep-22 11:32 293 3 gusting 6 4.4
2014-Sep-22 11:27 248 3 gusting 6 4.4
2014-Sep-22 11:22 315 3 gusting 7 4.4
2014-Sep-22 11:17 270 4 gusting 9 4.4
2014-Sep-22 11:12 338 4 gusting 9 4.4
2014-Sep-22 11:07 248 4 gusting 9 4.4
2014-Sep-22 11:02 338 4 gusting 7 4.4
2014-Sep-22 10:57 315 3 gusting 7 4.4
2014-Sep-22 10:52 293 5 gusting 7 4.4
2014-Sep-22 10:47 315 5 gusting 6 4.4
2014-Sep-22 10:42 248 4 gusting 8 4.4
2014-Sep-22 10:37 315 5 gusting 11 4.4
2014-Sep-22 10:32 315 5 gusting 11 4.4
2014-Sep-22 10:27 315 4 gusting 11 5.0
2014-Sep-22 10:22 338 3 gusting 6 5.0
2014-Sep-22 10:17 225 3 gusting 6 5.0
2014-Sep-22 10:12 248 3 gusting 6 5.0
2014-Sep-22 10:07 338 3 gusting 7 5.0
2014-Sep-22 10:02 248 3 gusting 7 5.0
2014-Sep-22 09:57 293 4 gusting 7 5.6
2014-Sep-22 09:52 338 4 gusting 8 5.6
2014-Sep-22 09:47 293 4 gusting 8 5.6
2014-Sep-22 09:42 023 4 gusting 8 5.6
2014-Sep-22 09:37 270 5 gusting 7 5.6
2014-Sep-22 09:32 293 3 gusting 8 5.6
2014-Sep-22 09:27 270 3 gusting 8 5.6
2014-Sep-22 09:22 315 3 gusting 8 5.6
2014-Sep-22 09:17 203 3 gusting 3 5.6
2014-Sep-22 09:12 293 3 gusting 6 6.1
2014-Sep-22 09:07 293 3 gusting 6 6.1
2014-Sep-22 09:02 293 3 gusting 6 5.6
2014-Sep-22 08:57 270 3 gusting 6 6.1
2014-Sep-22 08:52 270 3 gusting 6 6.1
2014-Sep-22 08:47 338 3 gusting 6 6.1
2014-Sep-22 08:42 270 3 gusting 6 6.1
2014-Sep-22 08:37 6.1
2014-Sep-22 08:32 338 3 gusting 6 6.1
2014-Sep-22 08:27 203 2 gusting 3 6.1
2014-Sep-22 08:22 293 1 gusting 6 6.1
2014-Sep-22 08:17 315 2 gusting 6 6.1
2014-Sep-22 08:12 315 2 gusting 6 6.7
2014-Sep-22 08:07 248 1 gusting 3 6.7
2014-Sep-22 08:02 315 1 gusting 3 6.7
2014-Sep-22 07:57 248 2 gusting 3 6.7
2014-Sep-22 07:52 270 2 gusting 7 6.7
2014-Sep-22 07:47 338 2 gusting 7 6.7
2014-Sep-22 07:42 338 1 gusting 7 6.7
2014-Sep-22 07:37 248 2 gusting 5 6.7
2014-Sep-22 07:32 248 2 gusting 5 6.7
2014-Sep-22 07:27 270 2 gusting 5 6.7
2014-Sep-22 07:22 293 1 gusting 6 6.7
2014-Sep-22 07:17 293 2 gusting 6 6.7
2014-Sep-22 07:12 293 3 gusting 6 6.7
2014-Sep-22 07:07 270 4 gusting 8 6.7
2014-Sep-22 07:02 293 3 gusting 8 7.2
2014-Sep-22 06:57 293 3 gusting 8 7.2
2014-Sep-22 06:52 270 3 gusting 4 7.2
2014-Sep-22 06:47 248 3 gusting 5 7.8
2014-Sep-22 06:42 248 2 gusting 5 7.8
2014-Sep-22 06:37 315 3 gusting 5 7.8
2014-Sep-22 06:32 203 3 gusting 5 7.8
2014-Sep-22 06:27 293 2 gusting 5 7.8
2014-Sep-22 06:22 315 1 gusting 5 8.3
2014-Sep-22 06:17 338 1 gusting 3 8.3
2014-Sep-22 06:12 248 1 gusting 4 8.3
2014-Sep-22 06:07 293 1 gusting 4 8.3
2014-Sep-22 06:02 270 2 gusting 4 8.3
2014-Sep-22 05:57 270 1 gusting 2 8.9
2014-Sep-22 05:52 248 1 gusting 2 8.9
2014-Sep-22 05:47 248 1 gusting 5 8.9
2014-Sep-22 05:42 315 1 gusting 5 8.9
2014-Sep-22 05:37 248 1 gusting 5 9.4
2014-Sep-22 05:32 315 2 gusting 5 9.4
2014-Sep-22 05:27 270 2 gusting 5 9.4
2014-Sep-22 05:22 270 1 gusting 5 9.4
2014-Sep-22 05:17 293 1 gusting 3 10.0
2014-Sep-22 05:12 270 1 gusting 1 10.0
2014-Sep-22 05:07 293 2 gusting 2 10.0
2014-Sep-22 05:02 248 2 gusting 3 10.0
2014-Sep-22 04:57 293 0 gusting 4 10.6
2014-Sep-22 04:52 248 1 gusting 4 10.6
2014-Sep-22 04:47 225 2 gusting 3 10.6
2014-Sep-22 04:42 203 1 gusting 3 10.6
2014-Sep-22 04:37 203 2 gusting 4 10.6
2014-Sep-22 04:32 270 2 gusting 5 10.6
2014-Sep-22 04:27 225 2 gusting 5 11.1
2014-Sep-22 04:22 225 2 gusting 6 11.1
2014-Sep-22 04:17 203 3 gusting 6 11.1
2014-Sep-22 04:12 180 3 gusting 6 11.1
2014-Sep-22 04:07 270 3 gusting 8 11.1
2014-Sep-22 04:02 180 3 gusting 10 11.7
2014-Sep-22 03:57 180 5 gusting 10 11.7
2014-Sep-22 03:52 135 4 gusting 7 11.7
2014-Sep-22 03:47 113 1 gusting 7 11.7
2014-Sep-22 03:42 113 1 gusting 3 11.7
2014-Sep-22 03:37 135 1 gusting 2 11.7
2014-Sep-22 03:32 135 0 gusting 1 11.7
2014-Sep-22 03:27 180 0 gusting 2 11.7
2014-Sep-22 03:22 158 0 gusting 2 11.7
2014-Sep-22 03:17 135 11.7
2014-Sep-22 03:12 135 11.7
2014-Sep-22 03:07 135 11.7
2014-Sep-22 03:02 135 11.7
2014-Sep-22 02:57 158 11.7
2014-Sep-22 02:52 113 11.7
2014-Sep-22 02:47 113 11.7
2014-Sep-22 02:42 113 11.7
2014-Sep-22 02:37 113 11.7
2014-Sep-22 02:32 113 11.7
2014-Sep-22 02:27 113 11.7
2014-Sep-22 02:22 090 11.7
2014-Sep-22 02:17 113 11.7
2014-Sep-22 02:12 113 11.7
2014-Sep-22 02:07 068 11.7
2014-Sep-22 02:02 158 11.7
2014-Sep-22 01:57 158 11.7
2014-Sep-22 01:52 135 11.7
2014-Sep-22 01:47 135 11.7
2014-Sep-22 01:42 090 11.7
2014-Sep-22 01:37 090 11.7
2014-Sep-22 01:32 090 11.7
2014-Sep-22 01:27 068 11.7
2014-Sep-22 01:22 068 11.7
2014-Sep-22 01:17 135 11.7
2014-Sep-22 01:12 113 11.7
2014-Sep-22 01:07 090 11.7
2014-Sep-22 01:02 248 11.7
2014-Sep-22 00:57 113 11.7
2014-Sep-22 00:52 113 12.2
2014-Sep-22 00:47 113 12.2
2014-Sep-22 00:42 113 12.2
2014-Sep-22 00:37 135 12.2
2014-Sep-22 00:32 135 12.2
2014-Sep-22 00:27 113 12.2
2014-Sep-22 00:12 090 12.2
2014-Sep-22 00:07 090 12.2
2014-Sep-22 00:02 090 12.2